Fairbanks Eiels, AK

2:02 AM AKST on December 06, 2019 (GMT -0900)
Eielson Air Force Base

Weather History for PAEI - October, 2019

Change the Weather History Date:

Saturday, October 26, 2019

  Actual Average Record
Temperature  
Mean Temperature 26 °F -  
Max Temperature 36 °F 21 °F 47 °F (1992)
Min Temperature 22 °F 5 °F -27 °F (1996)
Degree Days  
Heating Degree Days 39    
Moisture  
Dew Point 24 °F    
Average Humidity 88    
Maximum Humidity 93    
Minimum Humidity 85    
Precipitation  
Precipitation 0.00 in - - ()
Snow  
Snow 0.00 in - - ()
Snow Depth 3.00 in    
Sea Level Pressure  
Sea Level Pressure 30.43 in    
Wind  
Wind Speed 0 mph (North)    
Max Wind Speed 5 mph    
Max Gust Speed -    
Visibility 10 miles    
Events Rain    
Averages and records for this station are not official NWS values.
T = Trace of Precipitation, MM = Missing Value Source: NWS Daily Summary

Daily Weather History Graph

Daily Weather History Graph

Search for Another Location

Airport or City:

Astronomy

Oct. 26, 2019 Rise Set
Actual Time 9:15 AM AKDT 5:48 PM AKDT
Civil Twilight 8:22 AM AKDT 6:40 PM AKDT
Nautical Twilight 7:25 AM AKDT 7:37 PM AKDT
Astronomical Twilight 6:29 AM AKDT 8:33 PM AKDT
Moon 6:17 AM AKDT (10/26) 6:19 PM AKDT (10/26)
Length of Visible Light 10h 17m
Length of Day
8h 33m
Waning Crescent, 3% of the Moon is Illuminated
Oct 26
Waning Crescent
Oct 27
New
Nov 4
First Quarter
Nov 12
Full
Nov 19
Last Quarter

Hourly Weather History & Observations

Time (AKDT) Temp. Windchill Dew Point Humidity Pressure Visibility Wind Dir Wind Speed Gust Speed Precip Events Conditions
12:56 AM 25.5 °F - 22.1 °F 87% 30.49 in 10.0 mi Calm Calm - N/A   Scattered Clouds
1:56 AM 25.0 °F - 21.9 °F 88% 30.48 in 10.0 mi Calm Calm - N/A   Scattered Clouds
2:56 AM 22.3 °F - 19.8 °F 90% 30.48 in 10.0 mi Calm Calm - N/A   Partly Cloudy
3:56 AM 22.1 °F 15.9 °F 19.6 °F 90% 30.47 in 10.0 mi NW 4.6 mph - N/A   Scattered Clouds
4:56 AM 24.6 °F - 21.0 °F 86% 30.48 in 10.0 mi Calm Calm - N/A   Overcast
5:56 AM 23.7 °F - 21.2 °F 90% 30.48 in 10.0 mi Calm Calm - N/A   Overcast
6:56 AM 23.5 °F - 20.8 °F 89% 30.48 in 10.0 mi Calm Calm - N/A   Overcast
7:26 AM 23.0 °F - 21.2 °F 93% 30.49 in 10.0 mi Calm Calm - N/A   Overcast
7:56 AM 23.5 °F - 20.8 °F 89% 30.49 in 10.0 mi Calm Calm - N/A   Overcast
8:56 AM 24.1 °F - 21.4 °F 89% 30.49 in 10.0 mi Calm Calm - N/A   Overcast
9:56 AM 23.5 °F - 20.5 °F 88% 30.48 in 10.0 mi Calm Calm - N/A   Mostly Cloudy
10:26 AM 24.8 °F - 21.2 °F 86% 30.48 in 10.0 mi Calm Calm - N/A   Mostly Cloudy
10:41 AM 24.8 °F - 21.2 °F 86% 30.48 in 10.0 mi Calm Calm - N/A   Mostly Cloudy
11:41 AM 26.6 °F 21.2 °F 23.0 °F 86% 30.43 in 10.0 mi North 4.6 mph - N/A   Scattered Clouds
11:56 AM 26.6 °F 21.2 °F 23.0 °F 86% 30.43 in 10.0 mi North 4.6 mph - N/A   Partly Cloudy
12:56 PM 27.5 °F - 23.5 °F 85% 30.47 in 10.0 mi Calm Calm - N/A   Mostly Cloudy
1:56 PM 28.4 °F - 24.8 °F 86% 30.46 in 10.0 mi Calm Calm - N/A   Overcast
2:11 PM 28.4 °F - 24.8 °F 86% 30.46 in 10.0 mi Calm Calm - N/A   Overcast
2:56 PM 28.9 °F - 25.0 °F 85% 30.44 in 10.0 mi Calm Calm - N/A   Overcast
3:56 PM 30.0 °F - 26.1 °F 85% 30.43 in 10.0 mi Calm Calm - N/A   Overcast
4:56 PM 30.7 °F - 27.0 °F 86% 30.40 in 10.0 mi Calm Calm - N/A   Overcast
5:56 PM 29.8 °F - 27.0 °F 89% 30.38 in 10.0 mi Calm Calm - N/A   Overcast
6:56 PM 30.4 °F - 27.3 °F 88% 30.36 in 10.0 mi Calm Calm - N/A   Mostly Cloudy
7:56 PM 30.0 °F - 27.7 °F 91% 30.34 in 10.0 mi Calm Calm - N/A   Mostly Cloudy
8:56 PM 30.2 °F - 27.7 °F 90% 30.33 in 10.0 mi Calm Calm - N/A   Mostly Cloudy
9:56 PM 29.8 °F - 27.3 °F 90% 30.31 in 10.0 mi Calm Calm - N/A   Overcast
10:56 PM 30.0 °F - 27.5 °F 90% 30.29 in 10.0 mi Calm Calm - N/A   Overcast
11:12 PM 30.2 °F - 28.4 °F 93% 30.29 in 10.0 mi Calm Calm - N/A Rain Light Freezing Rain
11:56 PM 31.5 °F - 28.4 °F 88% 30.29 in 10.0 mi Calm Calm - 0.00 in Rain Light Freezing Rain